Regional Weather Roundup
Issued by NWS

Home | Current Version | Previous Version | Text Only | Print | Product List | Glossary Off
Versions: 1 2 3 4 5 6 7 8 9 10 11 12 13 14 15 16 17 18 19 20 21 22 23 24 25 26 27 28 29 30 31 32 33 34 35 36 37 38 39 40 41 42 43 44 45 46 47 48 49 50

000
ASUS45 KSLC 282210
RWRUT

UTAH REGIONAL WEATHER ROUNDUP
NATIONAL WEATHER SERVICE SALT LAKE CITY UT
400 PM MDT TUE JUL 28 2015

UTZ001>011-023>025-282300-

NORTHERN UTAH

CITY           SKY/WX    TMP DP  RH WIND       PRES   REMARKS
BRIGHAM CITY   SUNNY     74  17  11 CALM      30.24F
HILL AFB       SUNNY     72  24  16 VRB2      30.26F
LOGAN          SUNNY     72  26  18 VRB3      30.26F
OGDEN          SUNNY     73  20  13 VRB6      30.24F
PROVO AIRPORT  SUNNY     75  34  22 NW9       30.22F
SALT LAKE CITY SUNNY     76  24  14 NW13G18   30.22F
VERNAL         SUNNY     81  22  11 VRB3      30.17F
WENDOVER       SUNNY     75  27  16 SE8       30.23F
HEBER CITY     SUNNY     77  25  14 N7        30.24F
WEST JORDAN    SUNNY     73  30  20 NW13G18   30.25F

$$

UTZ012>022-026-027-282300-

SOUTHERN/CENTRAL UTAH

CITY           SKY/WX    TMP DP  RH WIND       PRES   REMARKS
BLANDING       SUNNY     88  30  12 SW7       30.23F
BRYCE CANYON   SUNNY     81  23  11 W13G20    30.30F
CEDAR CITY     SUNNY     85  25  11 VRB6      30.18F
DELTA          SUNNY     80  26  13 N8        30.19F
HANKSVILLE     SUNNY     90  30  12 CALM      30.09F
MILFORD        SUNNY     84  31  14 N13G22    30.17F
MOAB/CYNLANDS  SUNNY     90  22   8 VRB7      30.08F
PRICE          SUNNY     88  21   8 NW18G25   30.19F
ST GEORGE      CLEAR     97  34  11 N9        29.98F HX  91
KANAB          SUNNY     91  28  10 SW7G17    30.15F

$$

REGIONAL REPORTS     COLORADO/ARIZONA

CITY           SKY/WX    TMP DP  RH WIND       PRES   REMARKS
CRAIG, CO      SUNNY     81  31  16 NW13      30.24F
GRAND JUNCTION SUNNY     88  29  12 W8G17     30.09F
RIFLE          SUNNY     87  25  10 NW8       30.13F
MONTROSE       SUNNY     88  34  14 N10       30.16F
CORTEZ         SUNNY     88  25  10 NW10G22   30.16F
PAGE, AZ       SUNNY     93  25   8 NW7G20    30.04F
GRAND CANYON   SUNNY     86  25  11 W9G17     30.24F
KINGMAN        SUNNY     96  24   7 W8G18     30.01F HX  90
FLAGSTAFF      MOSUNNY   81  35  19 W8G20     30.27F

$$

REGIONAL REPORTS    NEVADA/IDAHO/WYOMING

CITY           SKY/WX    TMP DP  RH WIND       PRES   REMARKS
LAS VEGAS, NV  SUNNY    101  27   7 NE8       29.87F HX  94
ELY            SUNNY     80  24  12 N9        30.23F
ELKO           SUNNY     78   8   7 N3        30.23F
POCATELLO, ID  MOSUNNY   69  32  25 VRB6      30.30F
BURLEY         SUNNY     72  29  20 NE3       30.26F
EVANSTON, WY   SUNNY     70  14  11 NW10      30.34F
ROCK SPRINGS   SUNNY     70  16  12 W12G25    30.31F
KEMMERER       SUNNY     66  16  14 W16G25    30.36S

$$


USA.gov is the U.S. government's official web portal to all federal, state and local government web resources and services.